Rallye Monte Carlo 2015 : journée 1.







Rallye Monte Carlo 2015 journée 1
Rallye Monte Carlo 2015 journée 1 : les deux Seb sont devant. Crédit : twitter

Vers un duel Loeb Ogier ?

La 83ème édition du Rallye Monte Carlo 2015 ouvre, le jeudi 22 janvier, la saison du Championnat du Monde des Rallyes (WRC) par une courte première journée de 40 km chronométrés, répartie en deux épreuves spéciales (ES), entre Monaco et Gap.

Sur une route piégeuse (asphalte humide avec des passages neige/glace), diffusée en direct sur l’Equipe 21, l’ES1 (Entrevaux – Rouaine : 21,31 km) a vue Sébastien Loeb (DS3 WRC) pour son retour (ponctuel) en rallye, réaliser un petit exploit en signant le scracht avec 22 secondes d’avances sur Ott Tanak (Fiesta WRC) et 30.9 sur le double Champion du Monde en titre Sébastien Ogier (Polo R WRC). Surpris au point stop, Sébastien Loeb a indiqué :

La spéciale était complètement glacée. J’ai dit à Daniel que j’étais complètement arrêté à trois kilomètres de l’arrivée mais on dirait que ce n’était pas trop mal, je suis content de ce chrono.

Sébastien Loeb MC 2015 ES1
Sébastien Loeb à l’arrivée de l’ES1 – Crédit : DR.

L’ES 2 (Norante – Digne-les-Bains : 19,68 km) offre aux pilotes le mythique Col du Corbin avant une descente sur Digne. Des conditions de routes plus classique (asphalte) qui favorisent les premiers (la route devenant vite salle au fils des passages). Dans ces conditions Sébastien Ogier signe le scratch, devant son coéquipier Jari-Matti Latvala. Sébastien Loeb est troisième à 17.6 secondes. Sortie de route pour Bryan Bouffier sur Ford Fiesta WRC. Pourtant bien parti il se fait piéger sur une bosse, tire droit et sort de la route, percutant un arbre.

Monte Carlo 2015 : Fiesta WRC Bouffier
Sortie de route dans l’ES2 pour Bryan Bouffier sur Fiesta WRC. Crédit : twitter

Et pendant ce temps là, en RC5 …

Dans la catégorie RC5 composée des petites autos homologuées en R1 et N2, Christopher Garcin (Suzuki Swift N2) mène le bal, devant Stéphane Brunier (#117) et Vivian Cug (#118) tous deux sur Renault Twingo R1. Suivent David Berard (DS3 R1) et Stéphane Gragnola (Twingo R1).

Départ de Monaco avec Stéphane Brunier
Départ de Monaco avec Stéphane Brunier (#117), comme si vous y étiez

Rallye Monte Carlo 2015 : vidéo journée 1.

Monte Carlo 2015 : classement après journée 1.

POSPILOTEELIGIBILITÉTEMPSDIFF PRÉC.DIFF 1ER
1.4FRAS. LOEBM30:08.2
2.1FRAS. OGIERM30:21.5+13.3+13.3
3.2FINJ. LATVALAM30:44.3+22.8+36.1
4.6ESTO. TANAKM30:46.8+2.5+38.6
5.5GBRE. EVANSM30:55.6+8.8+47.4
6.3GBRK. MEEKEM31:08.0+12.4+59.8
7.9NORA. MIKKELSEN31:08.1+0.1+59.9
8.7BELT. NEUVILLEM31:15.0+6.9+1:06.8
9.12NORM. OSTBERG31:16.9+1.9+1:08.7
10.14NORH. SOLBERG31:25.8+8.9+1:17.6
11.21CZEM. PROKOPT31:27.1+1.3+1:18.9
12.8ESPD. SORDOM31:33.1+6.0+1:24.9
13.32FRAS. LEFEBVREWRC232:10.4+37.3+2:02.2
14.37ITAL. BERTELLIT32:30.0+19.6+2:21.8
15.43SVKM. KOCIWRC232:32.9+2.9+2:24.7
16.17UKRY. PROTASOV32:35.0+2.1+2:26.8
17.33FRAQ. GIORDANOWRC232:47.7+12.7+2:39.5
18.25CHEO. BURRI33:09.4+21.7+3:01.2
19.34IRLC. BREENWRC233:16.3+6.9+3:08.1
20.36FRAJ. MAURINWRC233:17.8+1.5+3:09.6
21.41DEUA. KREMERWRC233:25.4+7.6+3:17.2
22.27FRAF. LO FIEGO33:29.7+4.3+3:21.5
23.42ZAFH. LATEGANWRC233:32.6+2.9+3:24.4
24.24ITAM. GAMBA33:58.2+25.6+3:50.0
25.40CHEJ. HIRSCHIWRC234:01.1+2.9+3:52.9
26.73FRAM. MARGAILLAN34:04.6+3.5+3:56.4
27.72FRAN. LATIL34:29.0+24.4+4:20.8
28.19FRAJ. RAOUX34:36.6+7.6+4:28.4
29.60FRAQ. GILBERTWRC334:47.1+10.5+4:38.9
30.58FRAT. FOLBWRC334:53.7+6.6+4:45.5
31.52ITAS. TEMPESTINIWRC335:08.3+14.6+5:00.1
32.53NORO. VEIBYWRC335:50.5+42.2+5:42.3
33.20FRAF. DELECOURRGT35:57.8+7.3+5:49.6
34.76GBRE. BOLANDWRC 236:06.1+8.3+5:57.9
35.26ITAF. RE36:09.7+3.6+6:01.5
36.39FRAE. CAMILLIWRC236:19.9+10.2+6:11.7
37.28ITAM. SILVA36:22.6+2.7+6:14.4
38.82FRAR. DOLCE36:30.4+7.8+6:22.2
39.75AUTJ. KEFERBOCK36:51.6+21.2+6:43.4
40.61DEUC. RIEDEMANNWRC336:52.7+1.1+6:44.5
41.97FINM. VATANEN36:53.0+0.3+6:44.8
42.54IRLD. MC KENNAWRC336:57.1+4.1+6:48.9
43.74FRAC. CARRET37:05.8+8.7+6:57.6
44.85FRAC. ARNAUD37:08.3+2.5+7:00.1
45.80FRAF. SIAS37:19.3+11.0+7:11.1
46.102CHEC. ALTHAUS37:36.6+17.3+7:28.4
47.23FRAR. DUMASRGT37:40.9+4.3+7:32.7
48.99FRAJ. TAORMINA37:41.2+0.3+7:33.0
49.29CHEL. VUKASOVIC37:46.3+5.1+7:38.1
50.56ITAA. REWRC337:55.2+8.9+7:47.0
51.106FRAF. JOLY38:10.9+15.7+8:02.7
52.93FRAN. RESSEGAIRE38:42.0+31.1+8:33.8
53.81FRAL. VIALLE38:50.7+8.7+8:42.5
54.91FRAY. GALLEANO38:54.0+3.3+8:45.8
55.86DEUW. IHLE38:59.2+5.2+8:51.0
56.119FRAC. GARCIN 39:02.2+3.0+8:54.0
57.59HUNK. LUKACSWRC339:09.4+7.2+9:01.2
58.22BELM. DUEZRGT39:26.5+17.1+9:18.3
59.103FRAF. PICCHIONI39:45.2+18.7+9:37.0
60.57FRAY. ROSSELWRC339:48.7+3.5+9:40.5
61.100FRAS. METIFFIOT40:03.1+14.4+9:54.9
62.114CZEM. RADA40:18.7+15.6+10:10.5
63.94FRAP. BAFFOUN40:33.8+15.1+10:25.6
64.84FRAS. CONSANIWRC 340:34.1+0.3+10:25.9
65.71ITAA. MARCHETTI40:35.3+1.2+10:27.1
66.16POLR. KUBICA40:38.5+3.2+10:30.3
67.78FRAA. FOULONWRC 241:01.5+23.0+10:53.3
68.107FRAL. JAUSSAUD41:18.0+16.5+11:09.8
69.88GRCN. PAVLIDIS41:23.9+5.9+11:15.7
70.105FRAJ. CRETIEN41:26.4+2.5+11:18.2
71.117FRAS. BRUNIER 41:27.0+0.6+11:18.8
72.112DEUJ. MEINZER41:29.5+2.5+11:21.3
73.104FRAP. TANCI41:59.1+29.6+11:50.9
74.96GRCD. DRIVAKOS42:00.3+1.2+11:52.1
75.98CHEC. CORNUZ42:23.9+23.6+12:15.7
76.77ITAC. COVI42:32.8+8.9+12:24.6
77.51FRAC. DALMASSOWRC342:49.3+16.5+12:41.1
78.118FRAV. CUGUILLERE 42:51.2+1.9+12:43.0
79.79FRAJ. MONDET42:55.9+4.7+12:47.7
80.92ITAS. MARCHETTI42:57.4+1.5+12:49.2
81.38ITAM. VALLARIOWRC243:23.6+26.2+13:15.4
82.115FRAD. BERARD 43:23.9+0.3+13:15.7
83.109ITAL. FABIANI43:26.4+2.5+13:18.2
84.111FRAS. COUDERT43:38.9+12.5+13:30.7
85.101ISRA. COREANU45:10.0+1:31.1+15:01.8
86.108MCOM. DESSI45:58.7+48.7+15:50.5
87.113FRAC. BENSIMON46:01.1+2.4+15:52.9
88.116FRAS. GRAGNOLA47:04.8+1:03.7+16:56.6
89.95CHEM. BRERA49:49.1+2:44.3+19:40.9
90.18FRAS. CHARDONNET51:57.7+2:08.6+21:49.5
91.89ITAG. DI LUIGI56:44.8+4:47.1+26:36.6
92.87CHEL. REUCHE1:07:44.5+10:59.7+37:36.3

Vous pouvez suivre les temps en live sur le site officiel du WRC.






A propos Jean-Michel Marcelin 1578 Articles
Créateur du site PILOTE-DE-COURSE.COM. Rédacteur et pilote amateur en rallye. Passionné de sport auto en général, Rallye, Formule 1, RallyCross, Rallye-Raid, Drift, Sim Racing et bien d'autres ... ainsi que du spectacle et du Fun à l'américaine.

1 Rétrolien / Ping

  1. Rallye Monte-Carlo 2015. - Pilote de Course

Laisser un commentaire

Votre adresse de messagerie ne sera pas publiée.


*


Ce site utilise Akismet pour réduire les indésirables. En savoir plus sur comment les données de vos commentaires sont utilisées.